Find Starlink 33777

NORAD ID: 63843 Int'l Des: 2025-093 Owner: SPXS Country: US Constellation: starlink operational
LEOCIRCULAR

当前视图

正在加载3D地球...

About Starlink 33777

Starlink 33777 (NORAD 63843) is a starlink constellation satellite (v2 mini) launched May 7, 2025 by SPXS of US. It operates in LEO, CIRCULAR orbit with a mass of 575.00 kg.

关于 Starlink 33777

正在加载描述...

即将过境

Passes for default location (London). Set your location on the main map for personalized predictions.

高度历史

Loading altitude history...

两行轨道根数

1 63843C 25093H 26192.86993056 -.00022898 00000+0 -82946-3 0 1926
2 63843 43.0032 96.3373 0001252 260.7772 219.1805 15.27586291 13
Epoch: Jul 11, 2026 • Age: 6 hours

当前状态

高度 483.1 km
远地点 / 近地点 N/A
速度 7.63 km/s
星下点 21.14°N, 147.72°E
发射日期 May 7, 2025
运行时间 1.1 years
类型 internet

技术详情

分类 Payload
质量 575.00 kg
干质量 530.00 kg
总质量 575.00 kg
长度 0.30 m
直径 4.10 m
跨度 29.00 m
形状 Box + pan
制造商 SPXS
平台类型 Starlink V2MO
阶段状态 In Orbit
所有者/国家 SPXS/US

Most Searched